Regional Weather Roundup
Issued by NWS

Home | Current Version | Previous Version | Text Only | Print | Product List | Glossary On
Versions: 1 2 3 4 5 6 7 8 9 10 11 12 13 14 15 16 17 18 19 20 21 22 23 24 25 26 27 28 29 30 31 32 33 34 35 36 37 38 39 40 41 42 43 44 45 46 47 48 49 50
000
ASUS43 KDTX 250610
RWRMI
MICHIGAN HOURLY REGIONAL WEATHER ROUNDUP
NATIONAL WEATHER SERVICE DETROIT/PONTIAC MI
200 AM EDT WED APR 25 2018

NOTE: "FAIR" INDICATES FEW OR NO CLOUDS BELOW 12,000 FEET WITH NO
SIGNIFICANT WEATHER AND/OR OBSTRUCTION TO VISIBILITY.

MIZ047>049-052>055-059>063-066>070-074>076-081>083-250700-
SOUTHEAST LOWER MICHIGAN

CITY           SKY/WX    TMP DP  RH WIND       PRES   REMARKS
ADRIAN         CLOUDY    50  50 100 N6        29.95S FOG
6HR MIN TEMP:  50; 6HR MAX TEMP:  50; 6HR PCP: TRACE;

ALMA           CLOUDY    52  52 100 NW8       29.98S
6HR MIN TEMP:  51; 6HR MAX TEMP:  55;

ANN ARBOR      LGT RAIN  51  50  96 N6        29.94F FOG
BAD AXE        LGT RAIN  51  47  87 CALM      29.97F
6HR MIN TEMP:  51; 6HR MAX TEMP:  58;

CARO           DRIZZLE   50  48  95 CALM      29.96F
DETROIT CITY   CLOUDY    49  48  97 E6        29.94F FOG
6HR MIN TEMP:  49; 6HR MAX TEMP:  50; 6HR PCP:  0.09;

DETROIT        LGT RAIN  51  48  89 N6        29.94S VSB 1
6HR MIN TEMP:  51; 6HR MAX TEMP:  52; 6HR PCP:  0.02;

FLINT          LGT RAIN  50  49  96 CALM      29.96F FOG
6HR MIN TEMP:  50; 6HR MAX TEMP:  55; 6HR PCP:  0.04;

GROSSE ILE     CLOUDY    50  49  98 NE5       29.93S FOG
6HR MIN TEMP:  49; 6HR MAX TEMP:  51; 6HR PCP:  0.11;

HILLSDALE      CLOUDY    50  48  93 CALM      29.94S FOG
HOWELL         RAIN      50  49  98 CALM      29.95F
6HR MIN TEMP:  50; 6HR MAX TEMP:  54; 6HR PCP:  0.02;


CITY           SKY/WX    TMP DP  RH WIND       PRES   REMARKS
JACKSON        LGT RAIN  52  51  97 NW3       29.94F FOG
6HR MIN TEMP:  52; 6HR MAX TEMP:  52; 6HR PCP:  0.03;

LAMBERTVILLE   CLOUDY    50  48  92 CALM      29.93S FOG
6HR MIN TEMP:  49; 6HR MAX TEMP:  51;

LANSING        CLOUDY    51  51 100 N5        29.96F FOG
6HR MIN TEMP:  51; 6HR MAX TEMP:  54; 6HR PCP:  0.07;

LAPEER         DRIZZLE   50  49  97 CALM      29.96S
6HR MIN TEMP:  50; 6HR MAX TEMP:  54; 6HR PCP:  0.06;

MASON          CLOUDY    52  49  89 CALM      29.94F FOG
6HR MIN TEMP:  52; 6HR MAX TEMP:  55;

MONROE         CLOUDY    50  48  93 CALM      29.92F FOG
6HR MIN TEMP:  50; 6HR MAX TEMP:  51; 6HR PCP:  0.03;

MT. CLEMENS    DRIZZLE   50  50 100 NE3       29.93F
6HR MIN TEMP:  49; 6HR MAX TEMP:  50; 6HR PCP:  0.10;

PONTIAC        LGT RAIN  50  50 100 CALM      29.94S
6HR MIN TEMP:  50; 6HR MAX TEMP:  53; 6HR PCP:  0.01;

PORT HOPE        N/A     43  43 100 CALM      29.97S
6HR MIN TEMP:  42; 6HR MAX TEMP:  48; 6HR PCP:  0.05;

PORT HURON     RAIN      50  48  93 SE5       29.95F
TRI CITIES     CLOUDY    50  48  93 N6        29.98S FOG
6HR MIN TEMP:  49; 6HR MAX TEMP:  54; 6HR PCP:  0.03;

MIDLAND        CLOUDY    49  49 100 CALM      29.98S
6HR MIN TEMP:  49; 6HR MAX TEMP:  54; 6HR PCP:  0.04;

TROY           DRIZZLE   51  49  95 NE5       29.95F
SAGINAW HB     CLOUDY    50  48  93 CALM      29.96F FOG
$$
MIZ043>046-050>051-056>058-064>065-071>073-077>080-250700-
SOUTHWEST LOWER MICHIGAN

CITY           SKY/WX    TMP DP  RH WIND       PRES   REMARKS
BATTLE CREEK   CLOUDY    52  51  97 NW5       29.97S
6HR MIN TEMP:  52; 6HR MAX TEMP:  54; 6HR PCP:  0.08;

BENTON HARBOR  MOCLDY    49  44  83 CALM      29.98F
6HR MIN TEMP:  45; 6HR MAX TEMP:  53;

BIG RAPIDS     LGT SNOW  43  37  78 N8G18     30.03R
6HR MIN TEMP:  43; 6HR MAX TEMP:  53;

COLDWATER      CLOUDY    51  51 100 NW3       29.95F FOG
6HR MIN TEMP:  51; 6HR MAX TEMP:  53;

FREMONT        CLOUDY    46  34  62 N9G21     30.03R
6HR MIN TEMP:  46; 6HR MAX TEMP:  56;

HOLLAND        CLOUDY    54  50  86 N6        30.00R
6HR MIN TEMP:  51; 6HR MAX TEMP:  61;

GRAND RAPIDS   MOCLDY    52  50  93 N5        29.98S
6HR MIN TEMP:  52; 6HR MAX TEMP:  55; 6HR PCP:  0.04;

IONIA          CLOUDY    52  52  99 N5        29.97S
6HR MIN TEMP:  52; 6HR MAX TEMP:  55; 6HR PCP:  0.04;

KALAMAZOO      CLOUDY    54  52  93 N5        29.97S FOG
6HR MIN TEMP:  53; 6HR MAX TEMP:  58; 6HR PCP:  0.04;

LUDINGTON      FAIR      44  31  61 N9        30.08R
6HR MIN TEMP:  44; 6HR MAX TEMP:  54; 6HR PCP:  0.02;

MARSHALL       CLOUDY    51  50  98 CALM      29.95F FOG
6HR MIN TEMP:  51; 6HR MAX TEMP:  52;

MOUNT PLEASANT CLOUDY    53  52  97 N5        29.98S
6HR MIN TEMP:  52; 6HR MAX TEMP:  55; 6HR PCP:  0.10;

MUSKEGON       CLOUDY    51  36  56 N15       30.02R
6HR MIN TEMP:  47; 6HR MAX TEMP:  60;

SOUTH HAVEN    FAIR      46  43  88 CALM      29.99S
$$
MIZ016>042-250700-
NORTHERN LOWER MICHIGAN

CITY           SKY/WX    TMP DP  RH WIND       PRES   REMARKS
ALPENA         LGT RAIN  41  37  86 NW6       30.02S
6HR MIN TEMP:  41; 6HR MAX TEMP:  51; 6HR PCP:  0.06;

BEAVER ISLAND  DRIZZLE   39  34  80 NW6       30.10S
6HR MIN TEMP:  39; 6HR MAX TEMP:  49;

BELLAIRE       CLOUDY    42  28  55 N5        30.08S
6HR MIN TEMP:  42; 6HR MAX TEMP:  53;

CADILLAC       DRIZZLE   39  32  77 N6        30.04S WCI  35
CHARLEVOIX     CLOUDY    40  32  74 NW9       30.11F WCI  34
6HR MIN TEMP:  40; 6HR MAX TEMP:  43;

FRANKFORT      CLOUDY    43  31  62 N5        30.10S
GAYLORD        CLOUDY    41  28  60 NW7       30.03F
6HR MIN TEMP:  41; 6HR MAX TEMP:  49; 6HR PCP:  0.02;

HARBOR SPRINGS CLOUDY    40  30  69 W3        30.06S
HOUGHTON LAKE  CLOUDY    43  35  73 CALM      30.04R
6HR MIN TEMP:  42; 6HR MAX TEMP:  52; 6HR PCP:  0.03;

MANISTEE       FAIR      45  29  53 N9        30.09R
OSCODA         LGT RAIN  44  41  89 N9        30.00S
6HR MIN TEMP:  44; 6HR MAX TEMP:  51;

PELLSTON       CLOUDY    42  30  62 NW12      30.06F
6HR MIN TEMP:  42; 6HR MAX TEMP:  52;

ROGERS CITY    CLOUDY    41  30  65 NW7       30.03F
TRAVERSE CITY  CLOUDY    44  30  57 NW7       30.08S
6HR MIN TEMP:  44; 6HR MAX TEMP:  51; 6HR PCP: TRACE;

$$
MIZ007>008-015-250700-
EASTERN UPPER MICHIGAN

CITY           SKY/WX    TMP DP  RH WIND       PRES   REMARKS
KINROSS        LGT RAIN  39  34  82 NW14      30.05F WCI  31
6HR MIN TEMP:  38; 6HR MAX TEMP:  43; 6HR PCP: TRACE;

MACKINAC ISLAN CLOUDY    42  33  73 NW12G23   30.04S
6HR MIN TEMP:  42; 6HR MAX TEMP:  47;

NEWBERRY       CLOUDY    37  31  82 NW6       30.08F WCI  32
6HR MIN TEMP:  37; 6HR MAX TEMP:  43;

MUNISING         N/A     35  32  88 NW7       30.14S WCI  29
6HR MIN TEMP:  35; 6HR MAX TEMP:  41;

$$
MIZ004>006-011>014-085-250700-
CENTRAL UPPER MICHIGAN

CITY           SKY/WX    TMP DP  RH WIND       PRES   REMARKS
MANISTIQUE     FAIR      38  28  67 NW7       30.11S WCI  33
6HR MIN TEMP:  38; 6HR MAX TEMP:  47;

ESCANABA       FAIR      37  29  72 NW5       30.16R WCI  33
6HR MIN TEMP:  37; 6HR MAX TEMP:  48; 6HR PCP:  0.01;

MENOMINEE      MOCLDY    40  38  93 NW5       30.16S
6HR MIN TEMP:  40; 6HR MAX TEMP:  50; 6HR PCP:  0.04;

SAWYER-GWINN   FAIR      34  26  71 N12G17    30.16R WCI  25
6HR MIN TEMP:  34; 6HR MAX TEMP:  41;

$$
MIZ001>003-009>011-084-250700-
WESTERN UPPER MICHIGAN

CITY           SKY/WX    TMP DP  RH WIND       PRES   REMARKS
IRON MOUNTAIN  FAIR      35  32  88 NW3       30.15S
6HR MIN TEMP:  35; 6HR MAX TEMP:  52; 6HR PCP: TRACE;

HOUGHTON       FAIR      35  23  61 N14       30.21S WCI  26
6HR MIN TEMP:  35; 6HR MAX TEMP:  44;

COPPER HARBOR    N/A     35  28  75 NE13      30.21S WCI  26
6HR MIN TEMP:  35; 6HR MAX TEMP:  39;

IRONWOOD       FAIR      29  27  92 CALM      30.25R
6HR MIN TEMP:  29; 6HR MAX TEMP:  48;

$$

ABBREVIATIONS USED IN REMARKS
   TC - TEMPERATURE IN CELSIUS
  WCI - WIND CHILL INDEX
   HX - HEAT INDEX
  VSB - VISIBILITY





USA.gov is the U.S. government's official web portal to all federal, state and local government web resources and services.